Location: Unspecified
(0.0000°N, 0.0000°E)
Time: 02:33:05
(UTC+00:00)

Transit 2A Rocket - All Passes

Search period start: 05 March 2015 00:00
Search period end: 15 March 2015 00:00
Orbit: 585 x 922 km, 66.7° (Epoch: 04 March)

Date Brightness Start Highest point End Pass type
(mag) Time Alt. Az. Time Alt. Az. Time Alt. Az.
05 Mar - 07:24:51 10° SSW 07:29:40 72° ESE 07:35:00 10° NNE daylight
05 Mar - 18:16:09 10° NE 18:18:34 13° ENE 18:21:16 10° E daylight
05 Mar - 19:56:15 10° NW 20:01:20 38° WSW 20:05:56 10° S visible
06 Mar - 06:43:27 10° S 06:47:45 33° ESE 06:52:30 10° NE daylight
06 Mar - 08:27:32 10° W 08:30:26 15° WNW 08:33:08 10° NW daylight
06 Mar - 19:13:53 10° NNW 19:19:24 83° WSW 19:24:25 10° SSE visible
07 Mar - 06:03:04 10° SE 06:05:48 15° ESE 06:08:57 10° ENE daylight
07 Mar - 07:43:53 10° SW 07:48:15 30° WNW 07:52:53 10° N daylight
07 Mar - 18:32:09 10° N 18:37:25 47° ENE 18:42:16 10° SE visible
08 Mar - 07:01:20 10° SSW 07:06:12 65° WNW 07:11:33 10° NNE daylight
08 Mar - 17:51:09 10° NNE 17:55:18 23° ENE 17:59:22 10° ESE daylight
08 Mar - 19:33:39 10° WNW 19:37:51 22° WSW 19:41:36 10° SSW visible
09 Mar - 06:19:28 10° S 06:24:15 58° ESE 06:29:33 10° NNE daylight
09 Mar - 17:12:15 10° NE 17:13:04 10° ENE 17:14:21 10° ENE daylight
09 Mar - 18:50:41 10° NW 18:55:55 47° WSW 19:00:39 10° S visible
10 Mar - 05:38:17 10° SSE 05:42:21 27° ESE 05:46:50 10° NE visible
10 Mar - 07:21:24 10° WSW 07:24:56 18° WNW 07:28:26 10° NNW daylight
10 Mar - 18:08:30 10° NNW 18:13:59 81° ENE 18:18:57 10° SSE daylight
11 Mar - 04:58:26 10° SE 05:00:21 13° ESE 05:02:43 10° E visible
11 Mar - 06:38:10 10° SW 06:42:47 37° WNW 06:47:45 10° N daylight
11 Mar - 17:26:57 10° N 17:31:58 38° ENE 17:36:37 10° SE daylight
11 Mar - 19:12:02 10° W 19:14:24 13° WSW 19:16:20 10° SW visible
12 Mar - 05:55:50 10° SSW 06:00:46 80° WNW 06:06:12 10° NNE daylight
12 Mar - 16:46:15 10° NNE 16:49:49 18° ENE 16:53:25 10° ESE daylight
12 Mar - 18:27:53 10° NW 18:32:25 27° WSW 18:36:30 10° SSW visible
13 Mar - 05:14:08 10° S 05:18:50 47° ESE 05:24:02 10° NE visible
13 Mar - 07:00:41 10° WNW 07:01:41 10° WNW 07:02:13 10° WNW daylight
13 Mar - 17:45:10 10° NNW 17:50:30 58° WSW 17:55:18 10° S daylight
14 Mar - 04:33:09 10° SSE 04:36:54 22° ESE 04:41:04 10° ENE visible
14 Mar - 06:15:26 10° WSW 06:19:26 22° WNW 06:23:31 10° NNW daylight
14 Mar - 17:03:09 10° NNW 17:08:32 66° ENE 17:13:26 10° SSE daylight
